Weather History for KOXV - September, 2014

Change the Weather History Date:

Thursday, September 4, 2014

  Actual Average Record
Temperature  
Mean Temperature 83 °F -  
Max Temperature 91 °F 81 °F 95 °F (1954)
Min Temperature 75 °F 60 °F 41 °F (1974)
Cooling Degree Days 18    
Growing Degree Days 33 (Base 50)    
Moisture  
Dew Point 72 °F    
Average Humidity 73    
Maximum Humidity 89    
Minimum Humidity 58    
Precipitation  
Precipitation 0.00 in - - ()
Sea Level Pressure  
Sea Level Pressure 29.82 in    
Wind  
Wind Speed 12 mph (SSW)    
Max Wind Speed 23 mph    
Max Gust Speed 30 mph    
Visibility 10 miles    
Events      
Averages and records for this station are not official NWS values.
T = Trace of Precipitation, MM = Missing Value Source: NWS Daily Summary

Daily Weather History Graph

Daily Weather History Graph

Search for Another Location

Airport or City:

Trip Planner

Search our weather history database for the weather conditions in past years. The results will help you decide how hot, cold, wet, or windy it might be!

Date:

Astronomy

Sep. 04, 2014 Rise Set
Actual Time 6:41 AM CDT 7:40 PM CDT
Civil Twilight 6:13 AM CDT 8:08 PM CDT
Nautical Twilight 5:40 AM CDT 8:41 PM CDT
Astronomical Twilight 5:05 AM CDT 9:16 PM CDT
Moon 4:20 PM CDT (9/4) 1:31 AM CDT (9/4)
Length of Visible Light 13h 54m
Length of Day
12h 58m
Waxing Gibbous, 74% of the Moon is Illuminated
Sep 4
Waxing Gibbous
Sep 8
Full
Sep 15
Last Quarter
Sep 24
New
Oct 1
First Quarter

Hourly Weather History & Observations

Time (CDT) Temp. Heat Index Dew Point Humidity Pressure Visibility Wind Dir Wind Speed Gust Speed Precip Events Conditions
12:15 AM 75.2 °F - 69.8 °F 83% 29.82 in 10.0 mi South 11.5 mph 17.3 mph N/A   Clear
12:35 AM 75.2 °F - 69.8 °F 83% 29.82 in 10.0 mi South 12.7 mph - N/A   Clear
12:55 AM 75.2 °F - 69.8 °F 83% 29.82 in 10.0 mi SSE 12.7 mph - N/A   Clear
1:15 AM 75.2 °F - 69.8 °F 83% 29.82 in 10.0 mi South 10.4 mph - N/A   Clear
1:35 AM 75.2 °F - 69.8 °F 83% 29.81 in 10.0 mi South 10.4 mph - N/A   Mostly Cloudy
1:55 AM 75.2 °F - 69.8 °F 83% 29.81 in - South 11.5 mph - N/A   Overcast
2:15 AM 75.2 °F - 69.8 °F 83% 29.80 in 10.0 mi South 12.7 mph - N/A   Overcast
2:35 AM 75.2 °F - 69.8 °F 83% 29.80 in 10.0 mi South 11.5 mph - N/A   Overcast
2:55 AM 75.2 °F - 69.8 °F 83% 29.80 in 10.0 mi South 9.2 mph - N/A   Mostly Cloudy
3:15 AM 75.2 °F - 71.6 °F 89% 29.80 in 10.0 mi South 9.2 mph 15.0 mph N/A   Scattered Clouds
3:35 AM 75.2 °F - 71.6 °F 89% 29.79 in 10.0 mi South 11.5 mph - N/A   Partly Cloudy
3:55 AM 75.2 °F - 71.6 °F 89% 29.79 in 10.0 mi South 10.4 mph - N/A   Partly Cloudy
4:15 AM 75.2 °F - 71.6 °F 89% 29.79 in 10.0 mi South 10.4 mph 16.1 mph N/A   Partly Cloudy
4:35 AM 77.0 °F - 71.6 °F 83% 29.79 in 10.0 mi South 11.5 mph - N/A   Partly Cloudy
4:55 AM 75.2 °F - 71.6 °F 89% 29.78 in 10.0 mi South 11.5 mph 17.3 mph N/A   Clear
5:15 AM 75.2 °F - 71.6 °F 89% 29.79 in 10.0 mi South 10.4 mph - N/A   Clear
5:35 AM 75.2 °F - 71.6 °F 89% 29.79 in 10.0 mi South 10.4 mph - N/A   Clear
5:55 AM 75.2 °F - 71.6 °F 89% 29.80 in 10.0 mi South 9.2 mph - N/A   Clear
6:15 AM 75.2 °F - 71.6 °F 89% 29.80 in 10.0 mi South 10.4 mph - N/A   Mostly Cloudy
6:35 AM 75.2 °F - 71.6 °F 89% 29.80 in 10.0 mi South 10.4 mph - N/A   Overcast
6:55 AM 75.2 °F - 71.6 °F 89% 29.80 in 10.0 mi South 11.5 mph - N/A   Mostly Cloudy
7:15 AM 75.2 °F - 69.8 °F 83% 29.80 in 10.0 mi South 11.5 mph 17.3 mph N/A   Partly Cloudy
7:35 AM 75.2 °F - 69.8 °F 83% 29.80 in 10.0 mi South 16.1 mph - N/A   Clear
7:55 AM 77.0 °F - 69.8 °F 78% 29.80 in 10.0 mi South 13.8 mph 23.0 mph N/A   Clear
8:15 AM 77.0 °F - 71.6 °F 83% 29.80 in 10.0 mi South 16.1 mph 23.0 mph N/A   Clear
8:35 AM 78.8 °F - 71.6 °F 78% 29.79 in 10.0 mi SSW 15.0 mph 24.2 mph N/A   Clear
8:55 AM 78.8 °F - 71.6 °F 78% 29.80 in 10.0 mi SSW 12.7 mph 26.5 mph N/A   Clear
9:15 AM 80.6 °F 84.6 °F 71.6 °F 74% 29.80 in 10.0 mi SSW 16.1 mph 21.9 mph N/A   Clear
9:35 AM 80.6 °F 83.9 °F 69.8 °F 70% 29.80 in 10.0 mi SSW 17.3 mph 28.8 mph N/A   Clear
9:55 AM 82.4 °F 87.2 °F 71.6 °F 70% 29.80 in 10.0 mi South 13.8 mph 20.7 mph N/A   Clear
10:15 AM 82.4 °F 87.2 °F 71.6 °F 70% 29.80 in 10.0 mi SSW 18.4 mph - N/A   Clear
10:35 AM 82.4 °F 87.2 °F 71.6 °F 70% 29.81 in 10.0 mi SSW 13.8 mph 29.9 mph N/A   Clear
10:55 AM 84.2 °F 89.6 °F 71.6 °F 66% 29.81 in 10.0 mi SSW 18.4 mph 24.2 mph N/A   Clear
11:15 AM 84.2 °F 89.6 °F 71.6 °F 66% 29.81 in 10.0 mi SSW 16.1 mph 25.3 mph N/A   Clear
11:35 AM 86.0 °F 91.8 °F 71.6 °F 62% 29.81 in 10.0 mi SSW 15.0 mph 26.5 mph N/A   Clear
11:55 AM 86.0 °F 93.4 °F 73.4 °F 66% 29.82 in 10.0 mi SW 13.8 mph 24.2 mph N/A   Clear
12:15 PM 86.0 °F 93.4 °F 73.4 °F 66% 29.83 in 10.0 mi SSW 10.4 mph 25.3 mph N/A   Clear
12:30 PM 87.8 °F 95.6 °F 73.4 °F 62% 29.83 in 10.0 mi SW 13.8 mph 21.9 mph N/A   Clear
12:55 PM 87.8 °F 95.6 °F 73.4 °F 62% 29.82 in 10.0 mi SW 15.0 mph 23.0 mph N/A   Clear
1:15 PM 87.8 °F 95.6 °F 73.4 °F 62% 29.82 in 10.0 mi SSW 16.1 mph 23.0 mph N/A   Clear
1:35 PM 87.8 °F 95.6 °F 73.4 °F 62% 29.81 in 10.0 mi SSW 20.7 mph - N/A   Clear
1:55 PM 89.6 °F 98.2 °F 73.4 °F 59% 29.81 in - SSW 15.0 mph 24.2 mph N/A   Clear
2:15 PM 89.6 °F 98.2 °F 73.4 °F 59% 29.81 in 10.0 mi SSW 17.3 mph 24.2 mph N/A   Clear
2:30 PM 89.6 °F 98.2 °F 73.4 °F 59% 29.80 in 10.0 mi South 15.0 mph 23.0 mph N/A   Clear
2:55 PM 89.6 °F 98.2 °F 73.4 °F 59% 29.80 in 10.0 mi South 18.4 mph 27.6 mph N/A   Clear
3:15 PM 89.6 °F 98.2 °F 73.4 °F 59% 29.79 in 10.0 mi South 23.0 mph 29.9 mph N/A   Clear
3:35 PM 91.4 °F 102.5 °F 75.2 °F 59% 29.80 in 10.0 mi South 16.1 mph 25.3 mph N/A   Clear
3:55 PM 87.8 °F 95.6 °F 73.4 °F 62% 29.79 in 10.0 mi South 17.3 mph 23.0 mph N/A   Clear
4:15 PM 89.6 °F 98.2 °F 73.4 °F 59% 29.80 in 10.0 mi South 15.0 mph 21.9 mph N/A   Clear
4:35 PM 87.8 °F 95.6 °F 73.4 °F 62% 29.80 in 10.0 mi South 13.8 mph 20.7 mph N/A   Clear
4:55 PM 89.6 °F 98.2 °F 73.4 °F 59% 29.80 in 10.0 mi South 12.7 mph 20.7 mph N/A   Clear
5:15 PM 89.6 °F 98.2 °F 73.4 °F 59% 29.81 in 10.0 mi SSW 9.2 mph 18.4 mph N/A   Clear
5:35 PM 87.8 °F 95.6 °F 73.4 °F 62% 29.82 in 10.0 mi SSW 10.4 mph 16.1 mph N/A   Clear
5:55 PM 87.8 °F 95.6 °F 73.4 °F 62% 29.82 in 10.0 mi SSW 10.4 mph - N/A   Clear
6:15 PM 87.8 °F 93.8 °F 71.6 °F 58% 29.82 in 10.0 mi SSW 12.7 mph - N/A   Clear
6:35 PM 86.0 °F 91.8 °F 71.6 °F 62% 29.83 in 10.0 mi SSW 10.4 mph - N/A   Clear
6:55 PM 86.0 °F 91.8 °F 71.6 °F 62% 29.83 in 10.0 mi SSW 8.1 mph - N/A   Clear
7:15 PM 84.2 °F 90.9 °F 73.4 °F 70% 29.84 in 10.0 mi SSW 8.1 mph - N/A   Clear
7:35 PM 82.4 °F 88.2 °F 73.4 °F 74% 29.83 in 10.0 mi South 9.2 mph - N/A   Clear
7:55 PM 82.4 °F 88.2 °F 73.4 °F 74% 29.84 in 10.0 mi South 9.2 mph - N/A   Clear
8:15 PM 82.4 °F 87.2 °F 71.6 °F 70% 29.85 in 10.0 mi South 10.4 mph - N/A   Clear
8:35 PM 82.4 °F 87.2 °F 71.6 °F 70% 29.85 in 10.0 mi South 12.7 mph - N/A   Clear
8:55 PM 82.4 °F 87.2 °F 71.6 °F 70% 29.86 in 10.0 mi South 11.5 mph - N/A   Mostly Cloudy
9:15 PM 80.6 °F 84.6 °F 71.6 °F 74% 29.87 in 10.0 mi South 10.4 mph - N/A   Overcast
9:35 PM 80.6 °F 84.6 °F 71.6 °F 74% 29.88 in 10.0 mi South 11.5 mph - N/A   Overcast
10:15 PM 80.6 °F 84.6 °F 71.6 °F 74% 29.88 in 10.0 mi SSW 11.5 mph 19.6 mph N/A   Mostly Cloudy
10:35 PM 80.6 °F 84.6 °F 71.6 °F 74% 29.88 in 10.0 mi South 11.5 mph 19.6 mph N/A   Mostly Cloudy
10:55 PM 80.6 °F 84.6 °F 71.6 °F 74% 29.88 in 10.0 mi SSW 15.0 mph - N/A   Mostly Cloudy
11:15 PM 80.6 °F 83.9 °F 69.8 °F 70% 29.89 in 10.0 mi SSW 16.1 mph - N/A   Partly Cloudy
11:35 PM 80.6 °F 83.9 °F 69.8 °F 70% 29.89 in 10.0 mi SSW 10.4 mph 18.4 mph N/A   Mostly Cloudy
11:55 PM 78.8 °F - 71.6 °F 78% 29.90 in 10.0 mi West 5.8 mph - N/A   Scattered Clouds